Overview Statistics Trail Chart Weather Telemetry Raw packets
 

This is the latest recevied packets stored in our database for station/object DO1ATV-98. If no packets are shown the sender has not sent any packets the latest 24 hours.

If you compare the raw packets with similar data from other websites it may differ (especially the path), the reason is that we are not collecting packets from the same APRS-IS servers. Each APRS-IS server performes duplicate filtering, and which packet that is considered to be a duplicate may differ depending on which APRS-IS server you receive your data from.

<< 1 2 3 4 >>

1777953456: DO1ATV-98>APRSMC,TCPIP*,qAR,DB0OHA-99:T#196,904.9,23.2,0.0,1011.8,12.2,00000000

1777953456: DO1ATV-98>APRSMC,TCPIP*,qAR,DM2HEY-99:T#087,904.9,23.2,0.0,1011.8,12.2,00000000

1777953456: DO1ATV-98>APRSMC,TCPIP*,qAR,DM2HEY-99:!5051.05NM01028.03E-www.amateurfunk-db0tvi.de#Testbetrieb IB/B=100/A=003156

1777951074: DO1ATV-98>APRSMC,TCPIP*,qAR,DB0OHA-99:T#195,905.2,23.2,0.0,1012.1,11.1,00000000

1777951074: DO1ATV-98>APRSMC,TCPIP*,qAR,DM2HEY-99:T#086,905.2,23.2,0.0,1012.1,11.1,00000000

1777951074: DO1ATV-98>APRSMC,TCPIP*,qAR,DM2HEY-99:!5051.05NM01028.03E-www.amateurfunk-db0tvi.de#Testbetrieb IB/B=100/A=003156

1777949663: DO1ATV-98>APRSMC,TCPIP*,qAR,DB0TAW-13:T#194,905.5,23.2,0.0,1012.4,12.3,00000000

1777949651: DO1ATV-98>APRSMC,TCPIP*,qAR,DM2HEY-99:T#085,905.5,23.2,0.0,1012.4,12.3,00000000

1777949651: DO1ATV-98>APRSMC,TCPIP*,qAR,DM2HEY-99:!5051.05NM01028.03E-www.amateurfunk-db0tvi.de#Testbetrieb IB/B=056/A=003156

1777947701: DO1ATV-98>APRSMC,TCPIP*,qAR,DL2AKT-9:T#084,905.6,23.2,0.0,1012.6,12.4,00000000

1777947701: DO1ATV-98>APRSMC,TCPIP*,qAR,DB0OHA-99:T#193,905.6,23.2,0.0,1012.6,12.4,00000000

1777947701: DO1ATV-98>APRSMC,TCPIP*,qAR,DB0OHA-99:!5051.05NM01028.03E-www.amateurfunk-db0tvi.de#Testbetrieb IB/B=100/A=003156

1777946460: DO1ATV-98>APRSMC,TCPIP*,qAR,DM2HEY-99:T#083,905.7,23.2,0.0,1012.7,12.4,00000000

1777946460: DO1ATV-98>APRSMC,TCPIP*,qAR,DB0OHA-99:T#192,905.7,23.2,0.0,1012.7,12.4,00000000

1777946460: DO1ATV-98>APRSMC,TCPIP*,qAR,DM2HEY-99:!5051.05NM01028.03E-www.amateurfunk-db0tvi.de#Testbetrieb IB/A=003156

1777943917: DO1ATV-98>APRSMC,TCPIP*,qAR,DB0OHA-99:T#191,906.1,23.2,0.0,1013.1,12.4,00000000

1777943917: DO1ATV-98>APRSMC,TCPIP*,qAR,DB0OHA-99::DO1ATV-98:UNIT.hPa,C deg,%,hPa,C deg,Y/N,O/N,O/N,O/N,O/N,O/N,O/N,O/N

1777943917: DO1ATV-98>APRSMC,TCPIP*,qAR,DB0OHA-99::DO1ATV-98:EQNS.0,1,0,0,1,0,0,1,0,0,1,0,0,1,0

1777943917: DO1ATV-98>APRSMC,TCPIP*,qAR,DO1TFS-99:T#082,906.1,23.2,0.0,1013.1,12.4,00000000

1777943917: DO1ATV-98>APRSMC,TCPIP*,qAR,DB0OHA-99::DO1ATV-98:PARM.Press,Temp.in,Hum,QNH,Temp.out,track,-,-,-,-,-,-,-

1777943917: DO1ATV-98>APRSMC,TCPIP*,qAR,DO1TFS-99:!5051.05NM01028.03E-www.amateurfunk-db0tvi.de#Testbetrieb IB/B=100/A=003156

1777942512: DO1ATV-98>APRSMC,TCPIP*,qAR,DB0OHA-99:T#190,906.2,23.2,0.0,1013.3,12.2,00000000

1777942506: DO1ATV-98>APRSMC,TCPIP*,qAR,DM2HEY-99::DO1ATV-98:UNIT.hPa,C deg,%,hPa,C deg,Y/N,O/N,O/N,O/N,O/N,O/N,O/N,O/N

1777942506: DO1ATV-98>APRSMC,TCPIP*,qAR,DM2HEY-99::DO1ATV-98:PARM.Press,Temp.in,Hum,QNH,Temp.out,track,-,-,-,-,-,-,-

1777942506: DO1ATV-98>APRSMC,TCPIP*,qAR,DM2HEY-99:T#081,906.2,23.2,0.0,1013.3,12.2,00000000